Stations météo

Publicité
Millau, France (7558): Température de l'air & dewpoint: 14.04.2019 14:00:00 - 20.04.2019 14:00:00 (CEST)Millau, France (7558): Température de l'air 5cm: 14.04.2019 14:00:00 - 20.04.2019 14:00:00 (CEST)Millau, France (7558): Température de l'air -20cm & Température de l'air -100cm: 14.04.2019 14:00:00 - 20.04.2019 14:00:00 (CEST)Millau, France (7558): Vitesse du vent & gusts: 14.04.2019 14:00:00 - 20.04.2019 14:00:00 (CEST)Millau, France (7558): Direction du vent: 14.04.2019 14:00:00 - 20.04.2019 14:00:00 (CEST)Millau, France (7558): reduced air pressure: 14.04.2019 14:00:00 - 20.04.2019 14:00:00 (CEST)Millau, France (7558): visibility: 14.04.2019 14:00:00 - 20.04.2019 14:00:00 (CEST)Millau, France (7558): Ensoleillement: 14.04.2019 14:00:00 - 20.04.2019 14:00:00 (CEST)Millau, France (7558): Quantités de précipitations: 14.04.2019 14:00:00 - 20.04.2019 14:00:00 (CEST)
Date & Time tt [°C] td [°C] tt 5cm [°C] tt -20cm [°C] tt -100cm [°C] ff [km/h] ff [knt] fx [km/h] fx [knt] dd ppp [hPa] vv [km] sd [min] rr [mm]
20.04.2019 14:00:00 18,2 3,6 19,4 10,6 10,0 19 10 37 20 SSE 1021,2 20 44 0,0
20.04.2019 13:00:00 17,8 2,5 21,9 10,5 10,0 20 11 53 29 S 1021,8 20 60 0,0
20.04.2019 12:00:00 17,0 0,2 19,9 10,5 10,0 20 11 36 20 SE 1022,7 20 60 0,0
20.04.2019 11:00:00 15,7 2,8 19,0 10,5 10,0 14 8 24 13 SE 1023,3 20 60 0,0
20.04.2019 10:00:00 14,1 2,9 15,4 10,5 10,0 9 5 16 9 NE 1023,9 20 60 0,0
20.04.2019 09:00:00 11,1 2,1 10,1 10,6 10,0 10 5 18 10 NE 1025,2 20 60 0,0
20.04.2019 08:00:00 9,2 1,1 7,1 10,7 10,0 13 7 21 11 NE 1025,8 20 21 0,0
20.04.2019 07:00:00 8,6 0,8 6,4 10,8 10,0 13 7 19 11 NE 1025,5 20 0 0,0
20.04.2019 06:00:00 8,9 0,1 6,6 10,8 10,0 10 5 14 8 NE 1025,5 20 0 0,0
20.04.2019 05:00:00 9,4 0,3 7,2 11,0 10,0 10 6 17 9 NE 1025,6 20 0 0,0
20.04.2019 04:00:00 9,9 -0,1 7,8 11,0 9,9 11 6 16 9 ENE 1025,9 20 0 0,0
20.04.2019 03:00:00 10,6 0,0 8,3 11,1 9,9 9 5 16 9 E 1026,0 20 0 0,0
20.04.2019 02:00:00 10,6 0,3 8,6 11,1 9,9 7 4 21 11 E 1026,5 20 0 0,0
20.04.2019 01:00:00 10,6 1,1 8,9 11,2 9,9 13 7 22 12 ESE 1027,0 20 0 0,0
20.04.2019 00:00:00 10,6 1,7 9,0 11,2 9,9 14 8 27 15 ESE 1027,3 20 0 0,0
19.04.2019 23:00:00 11,0 2,0 9,5 11,2 9,9 16 9 29 16 E 1027,5 20 0 0,0
19.04.2019 22:00:00 11,1 2,1 9,9 11,2 9,9 18 10 31 17 ESE 1027,3 20 0 0,0
19.04.2019 21:00:00 12,4 1,7 11,2 11,1 9,9 23 12 39 21 SE 1026,5 20 14 0,0
19.04.2019 20:00:00 13,4 0,1 13,0 11,1 9,9 29 15 54 29 SSE 1025,5 20 60 0,0
19.04.2019 19:00:00 14,5 -0,4 15,4 10,9 9,9 35 19 55 30 SSE 1024,8 20 60 0,0
19.04.2019 18:00:00 15,8 3,9 18,4 10,8 9,9 32 17 53 28 SSE 1024,1 20 60 0,0
19.04.2019 17:00:00 16,9 3,2 19,7 10,6 9,9 33 18 62 33 SSE 1023,7 20 60 0,0
19.04.2019 16:00:00 16,9 -0,4 20,0 10,5 9,9 42 23 61 33 SSE 1023,7 20 60 0,0
19.04.2019 15:00:00 17,4 2,2 19,4 10,3 9,9 36 19 71 38 SSE 1023,8 20 60 0,0
19.04.2019 14:00:00 16,9 1,7 18,3 10,3 9,9 52 28 72 39 SSE 1023,6 20 50 0,0
19.04.2019 13:00:00 16,8 2,4 19,3 10,1 9,9 46 25 74 40 SE 1023,7 20 60 0,0
19.04.2019 12:00:00 16,6 2,9 18,5 10,1 9,9 41 22 60 32 ESE 1023,4 20 60 0,0
19.04.2019 11:00:00 15,8 3,6 15,2 10,1 9,8 34 19 63 34 SE 1023,3 20 30 0,0
19.04.2019 10:00:00 13,9 3,6 13,7 10,2 9,9 20 11 49 26 SE 1023,4 20 8 0,0
19.04.2019 09:00:00 12,9 3,3 11,5 10,2 9,8 24 13 63 34 SE 1023,2 20 27 0,0
19.04.2019 08:00:00 11,9 2,3 10,7 10,2 9,8 27 15 53 29 SE 1023,1 20 0 0,0
19.04.2019 07:00:00 11,6 1,5 10,5 10,3 9,9 18 10 53 29 SE 1022,6 20 0 0,0
19.04.2019 06:00:00 11,9 1,5 10,6 10,3 9,8 17 9 53 29 SE 1022,3 20 0 0,0
19.04.2019 05:00:00 11,9 1,2 10,3 10,4 9,8 19 11 43 23 SE 1022,0 20 0 0,0
19.04.2019 04:00:00 11,8 1,1 10,5 10,4 9,8 17 9 47 26 ESE 1021,7 20 0 0,0
19.04.2019 03:00:00 12,1 0,5 9,8 10,5 9,8 26 14 42 23 SE 1021,6 20 0 0,0
19.04.2019 02:00:00 11,3 -0,2 9,2 10,5 9,8 18 10 35 19 SE 1022,1 20 0 0,0
19.04.2019 01:00:00 10,5 0,5 8,9 10,6 9,8 14 8 34 19 SE 1022,2 20 0 0,0
19.04.2019 00:00:00 10,5 2,1 9,1 10,6 9,8 19 10 37 20 SE 1021,9 20 0 0,0
18.04.2019 23:00:00 10,5 2,3 9,1 10,6 9,8 14 8 33 18 SE 1021,9 20 0 0,0
18.04.2019 22:00:00 11,3 2,1 10,0 10,6 9,8 21 11 36 20 SE 1021,3 20 0 0,0
18.04.2019 21:00:00 12,0 1,6 10,7 10,5 9,8 20 11 45 24 SE 1020,5 20 2 0,0
18.04.2019 20:00:00 13,2 1,5 12,6 10,4 9,8 22 12 57 31 SE 1019,4 20 0 0,0
18.04.2019 19:00:00 14,1 2,9 14,2 10,4 9,8 39 21 72 39 SE 1018,6 20 25 0,0
18.04.2019 18:00:00 15,1 3,2 15,6 10,2 9,8 42 23 67 36 SE 1017,9 20 39 0,0
18.04.2019 17:00:00 15,6 3,4 16,8 10,1 9,8 38 20 64 34 SE 1017,8 20 44 0,0
18.04.2019 16:00:00 15,4 2,9 17,4 10,0 9,8 43 23 65 35 SSE 1018,2 20 56 0,0
18.04.2019 15:00:00 15,4 4,7 17,4 9,9 9,8 34 18 59 32 SSE 1018,5 20 55 0,0
18.04.2019 14:00:00 14,8 3,9 16,5 9,8 9,8 45 24 72 39 SE 1018,1 20 60 0,0
18.04.2019 13:00:00 14,0 4,0 16,0 9,7 9,8 43 23 69 38 SSE 1018,5 20 56 0,0
18.04.2019 12:00:00 13,6 4,2 15,5 9,7 9,8 29 16 61 33 SE 1018,6 20 60 0,0
18.04.2019 11:00:00 13,0 2,5 13,9 9,7 9,8 38 20 61 33 SE 1018,3 20 60 0,0
18.04.2019 10:00:00 11,6 3,1 11,8 9,7 9,8 24 13 37 20 SE 1018,6 20 60 0,0
18.04.2019 09:00:00 9,8 3,3 8,0 9,9 9,8 22 12 48 26 SE 1019,0 20 60 0,0
18.04.2019 08:00:00 7,9 3,4 6,4 9,9 9,8 25 14 45 24 SE 1019,3 20 38 0,0
18.04.2019 07:00:00 7,2 4,0 6,5 9,9 9,8 22 12 41 22 SE 1019,3 20 0 0,0
18.04.2019 06:00:00 7,7 5,5 6,9 10,0 9,8 24 13 41 22 SE 1018,7 20 0 0,0
18.04.2019 05:00:00 7,9 5,7 7,2 10,0 9,8 24 13 49 27 SE 1018,7 20 0 0,0
18.04.2019 04:00:00 8,1 5,9 7,7 10,0 9,8 26 14 47 26 SE 1018,7 20 0 0,0
18.04.2019 03:00:00 8,1 5,7 7,8 10,1 9,8 31 17 51 28 ESE 1018,9 20 0 0,0
18.04.2019 02:00:00 8,2 6,0 7,6 10,1 9,8 23 12 40 22 SE 1019,4 20 0 0,0
18.04.2019 01:00:00 8,1 5,9 7,1 10,2 9,7 24 13 42 23 SE 1020,0 20 0 0,0
18.04.2019 00:00:00 7,5 5,5 6,8 10,2 9,7 22 12 37 20 SE 1019,8 20 0 0,0
17.04.2019 23:00:00 8,2 3,8 7,5 10,3 9,7 26 14 43 23 SE 1019,5 20 0 0,0
17.04.2019 22:00:00 9,0 3,8 8,2 10,3 9,7 29 16 45 25 SE 1018,9 20 0 0,0
17.04.2019 21:00:00 9,5 4,1 8,7 10,3 9,8 23 13 42 23 SE 1018,2 20 0 0,0
17.04.2019 20:00:00 10,4 4,1 9,9 10,2 9,7 26 14 48 26 SE 1017,5 20 0 0,0
17.04.2019 19:00:00 11,6 4,1 11,8 10,2 9,7 32 17 48 26 SE 1016,7 20 0 0,0
17.04.2019 18:00:00 12,6 4,0 13,6 10,1 9,7 34 18 58 31 SE 1016,3 20 10 0,0
17.04.2019 17:00:00 13,0 4,2 14,1 10,0 9,8 37 20 60 32 SE 1016,4 20 25 0,0
17.04.2019 16:00:00 12,9 5,1 14,2 9,9 9,7 39 21 56 30 SE 1016,6 20 5 0,0
17.04.2019 15:00:00 13,8 6,2 14,2 9,8 9,7 30 16 51 28 SE 1016,9 20 10 0,0
17.04.2019 14:00:00 13,3 5,9 13,7 9,7 9,8 31 17 54 29 SE 1017,1 20 13 0,0
17.04.2019 13:00:00 12,5 6,5 14,2 9,7 9,7 34 19 58 31 SSE 1017,8 20 36 0,0
17.04.2019 12:00:00 12,2 6,2 13,7 9,6 9,7 28 15 50 27 SE 1017,9 20 49 0,0
17.04.2019 11:00:00 11,5 6,2 12,7 9,6 9,7 25 13 41 22 SE 1018,3 20 57 0,0
17.04.2019 10:00:00 9,8 6,3 11,3 9,7 9,7 22 12 31 17 SE 1018,3 20 60 0,0
17.04.2019 09:00:00 7,8 5,9 4,7 9,7 9,7 9 5 21 11 ESE 1019,1 20 48 0,0
17.04.2019 08:00:00 4,9 4,9 3,9 9,8 9,7 6 3 10 6 NE 1020,0 20 13 0,0
17.04.2019 07:00:00 4,7 4,7 3,8 9,8 9,7 7 4 10 6 NE 1019,9 0,1 0 0,0
17.04.2019 06:00:00 5,3 5,2 5,2 9,9 9,7 5 3 17 9 NNE 1020,0 0,1 0 0,0
17.04.2019 05:00:00 5,9 5,9 5,6 9,9 9,7 9 5 16 9 ENE 1020,3 5 0 0,0
17.04.2019 04:00:00 5,8 5,7 5,7 10,0 9,7 7 4 10 5 ESE 1020,7 0,1 0 0,0
17.04.2019 03:00:00 6,1 6,0 5,9 10,0 9,7 5 3 12 7 NE 1021,0 0,3 0 0,0
17.04.2019 02:00:00 5,9 5,8 5,2 10,1 9,7 8 4 11 6 NNE 1021,5 0,1 0 0,0
17.04.2019 01:00:00 5,8 5,5 5,1 10,1 9,7 10 6 16 8 ESE 1021,6 0,1 0 0,0
17.04.2019 00:00:00 6,5 5,8 5,7 10,1 9,7 13 7 16 9 ESE 1021,3 11 0 0,0
16.04.2019 23:00:00 7,4 6,2 6,6 10,1 9,7 12 7 18 10 ESE 1021,2 20 0 0,0
16.04.2019 22:00:00 8,2 6,0 7,4 10,1 9,7 14 8 19 10 ESE 1020,6 20 0 0,0
16.04.2019 21:00:00 10,2 5,6 8,1 10,0 9,7 3 2 7 4 SSE 1019,7 20 10 0,0
16.04.2019 20:00:00 11,5 6,2 13,1 9,9 9,7 6 3 11 6 S 1019,0 20 48 0,0
16.04.2019 19:00:00 11,9 6,8 13,6 9,8 9,7 6 4 14 8 SE 1018,8 20 52 0,0
16.04.2019 18:00:00 12,5 7,8 12,9 9,7 9,7 6 3 19 11 E 1018,5 20 30 0,0
16.04.2019 17:00:00 11,0 7,9 12,3 9,6 9,7 8 4 14 8 SSE 1019,2 20 0 0,0
16.04.2019 16:00:00 10,6 7,5 11,7 9,6 9,7 5 3 14 7 N 1019,6 20 0 0,0
16.04.2019 15:00:00 9,5 7,9 9,2 9,6 9,7 4 2 19 11 W 1020,1 20 1 0,0
16.04.2019 14:00:00 8,6 8,3 8,3 9,6 9,7 11 6 20 11 SSW 1020,3 15 1 0,0
16.04.2019 13:00:00 7,4 7,1 7,8 9,5 9,7 9 5 16 9 S 1020,7 2,5 0 0,0
16.04.2019 12:00:00 7,0 6,6 7,4 9,6 9,7 4 2 11 6 SSE 1020,8 5 0 0,0
16.04.2019 11:00:00 6,6 6,2 6,3 9,6 9,6 6 4 12 6 S 1020,7 2,8 0 0,4
16.04.2019 10:00:00 5,9 5,3 5,9 9,6 9,7 0 0 0 0 N 1020,5 0,8 0 0,6
16.04.2019 09:00:00 5,7 4,7 5,3 9,7 9,6 0 0 4 2 N 1019,9 3,1 0 0,0
16.04.2019 08:00:00 5,5 3,8 4,9 9,7 9,7 3 1 11 6 ENE 1019,3 10 0 0,0
16.04.2019 07:00:00 5,5 4,0 4,8 9,8 9,7 2 1 16 9 SSE 1018,9 20 0 0,0
16.04.2019 06:00:00 5,4 3,9 4,7 9,8 9,6 9 5 16 9 SSE 1018,7 20 0 0,5
16.04.2019 05:00:00 5,6 4,6 4,9 9,9 9,6 6 3 16 8 S 1018,9 14 0 1,4
16.04.2019 04:00:00 5,7 4,3 5,0 9,9 9,6 12 7 23 12 S 1018,7 19 0 3,8
16.04.2019 03:00:00 6,8 4,9 5,8 10,0 9,6 6 3 11 6 SE 1018,6 8 0 0,4
16.04.2019 02:00:00 7,1 4,4 6,6 10,0 9,6 9 5 24 13 SE 1018,8 20 0 0,0
16.04.2019 01:00:00 7,2 4,2 6,8 10,1 9,6 19 11 37 20 SSE 1018,7 20 0 0,0
16.04.2019 00:00:00 7,4 4,2 6,8 10,1 9,6 22 12 52 28 SE 1017,9 20 0 0,0
15.04.2019 23:00:00 7,3 3,2 6,8 10,1 9,6 25 13 50 27 SE 1016,9 20 0 0,0
15.04.2019 22:00:00 7,6 4,0 7,2 10,1 9,6 37 20 59 32 SE 1016,5 20 0 0,0
15.04.2019 21:00:00 7,8 4,0 7,4 10,1 9,6 23 12 45 24 SE 1016,3 20 0 0,0
15.04.2019 20:00:00 8,8 1,5 8,4 10,1 9,6 24 13 75 41 SE 1015,7 20 0 0,0
15.04.2019 19:00:00 9,5 0,1 9,4 10,0 9,6 42 23 73 39 SE 1015,2 20 0 0,0
15.04.2019 18:00:00 10,0 0,3 10,7 9,9 9,6 28 15 61 33 SE 1015,6 20 0 0,0
15.04.2019 17:00:00 10,4 -1,0 11,4 9,7 9,6 41 22 64 35 SE 1015,1 20 0 0,0
15.04.2019 16:00:00 11,8 -1,4 13,9 9,6 9,6 37 20 59 32 SE 1015,1 20 43 0,0
15.04.2019 15:00:00 12,6 -2,9 14,8 9,5 9,6 39 21 60 32 ESE 1014,9 20 36 0,0
15.04.2019 14:00:00 13,0 -3,3 16,4 9,3 9,6 37 20 54 29 SE 1014,8 20 60 0,0
15.04.2019 13:00:00 13,6 -5,1 16,9 9,2 9,6 30 16 43 23 SSE 1014,7 20 60 0,0
15.04.2019 12:00:00 12,2 -6,3 16,3 9,2 9,6 18 10 26 14 SE 1015,4 20 60 0,0
15.04.2019 11:00:00 10,2 -6,2 13,2 9,3 9,6 8 5 15 8 ESE 1016,4 20 60 0,0
15.04.2019 10:00:00 6,8 -6,2 8,1 9,4 9,6 6 3 19 10 NE 1017,7 20 60 0,0
15.04.2019 09:00:00 3,8 -6,5 3,8 9,5 9,6 13 7 22 12 NNE 1018,8 20 60 0,0
15.04.2019 08:00:00 1,9 -6,7 -0,3 9,6 9,6 9 5 18 10 N 1019,5 20 3 0,0
15.04.2019 07:00:00 0,7 -7,1 -0,7 9,7 9,6 10 5 23 12 N 1019,6 20 0 0,0
15.04.2019 06:00:00 0,2 -6,4 -1,1 9,8 9,5 11 6 19 10 NNE 1019,8 20 0 0,0
15.04.2019 05:00:00 0,8 -6,8 -0,9 9,9 9,6 8 5 15 8 NNE 1020,2 20 0 0,0
15.04.2019 04:00:00 1,0 -6,3 0,0 10,0 9,6 12 6 16 8 NE 1020,4 20 0 0,0
15.04.2019 03:00:00 2,0 -6,3 0,9 10,1 9,5 14 8 26 14 NNE 1020,3 20 0 0,0
15.04.2019 02:00:00 2,5 -6,1 1,6 10,2 9,6 17 9 38 21 NE 1020,3 20 0 0,0
15.04.2019 01:00:00 3,6 -6,1 2,7 10,3 9,6 27 15 42 23 NNE 1019,5 20 0 0,0
15.04.2019 00:00:00 4,7 -6,8 3,8 10,3 9,6 32 17 47 26 NNE 1019,3 20 0 0,0
14.04.2019 23:00:00 6,0 -6,9 4,9 10,3 9,5 29 16 38 20 N 1018,1 20 0 0,0
14.04.2019 22:00:00 7,1 -5,3 5,8 10,3 9,5 21 11 28 15 N 1017,7 20 0 0,0
14.04.2019 21:00:00 8,8 -7,0 7,2 10,3 9,6 18 10 32 17 NW 1016,2 20 8 0,0
14.04.2019 20:00:00 11,0 -7,3 11,4 10,1 9,5 23 12 44 24 WNW 1015,1 20 60 0,0
14.04.2019 19:00:00 12,3 -6,7 15,0 10,0 9,5 27 15 48 26 NW 1014,0 20 60 0,0
14.04.2019 18:00:00 12,9 -5,7 17,2 9,8 9,5 29 16 46 25 NW 1013,7 20 60 0,0
14.04.2019 17:00:00 13,5 -5,7 14,8 9,7 9,5 31 17 49 26 NW 1013,1 20 34 0,0
14.04.2019 16:00:00 12,5 -6,0 17,9 9,5 9,5 26 14 49 26 NW 1013,5 20 58 0,0
14.04.2019 15:00:00 13,4 -5,7 18,1 9,3 9,5 24 13 43 23 WNW 1013,5 20 60 0,0
14.04.2019 14:00:00 12,3 -7,7 17,3 9,2 9,5 22 12 37 20 WNW 1013,8 20 60 0,0

tt = Température de l'air
td = dewpoint
tt 5cm = Température de l'air 5cm
tt -20cm = Température de l'air -20cm
tt -100cm = Température de l'air -100cm
ff = Vitesse du vent
fx = gusts
dd = Direction du vent
ppp = reduced air pressure
vv = visibility
sd = Ensoleillement
rr = Quantités de précipitations

stations d'obs. à proximité